[[{"header":{"parameterUnit":"m.s-1","parameterCategory":1,"la1":30.2992,"la2":30.254,"lo1":-89.0895,"lo2":-89.0443,"dy":0.0025,"dx":0.0025,"nx":19,"ny":19,"refTime":"2026-05-14T21:00:00:Z","depth":0,"parameterNumber":2,"parameterNumberName":"U-component_of_WINDS"},"data":[0,0,0,-3.2265,-3.2267,-3.2356,-3.2356,-3.2492,-3.2493,0,0,0,0,0,0,0,0,0,0,0,-3.2252,-3.2254,-3.2265,-3.2267,-3.2356,-3.2356,-3.2492,-3.2493,0,0,0,0,0,0,0,0,0,0,0,-3.2252,-3.2253,-3.2255,-3.2268,-3.2356,-3.2356,-3.2491,-3.2417,0,0,0,0,0,0,0,0,0,0,-3.2327,-3.2329,-3.2253,-3.2255,-3.2268,-3.2356,-3.2356,-3.2413,-3.2421,-3.2462,0,-3.2501,0,-3.2499,-3.2504,-3.2504,0,0,0,-3.2257,-3.2322,-3.2333,-3.2256,-3.2269,-3.2356,-3.2313,-3.2417,-3.2427,-3.2473,-3.2503,-3.2507,-3.2502,-3.2505,-3.2506,-3.2771,-3.2772,0,0,-3.2252,-3.2276,-3.2326,-3.234,-3.2327,-3.231,-3.2316,-3.2423,-3.2457,-3.2503,-3.251,-3.2504,-3.2506,-3.2507,-3.2769,-3.2771,0,0,0,-3.2245,-3.2273,-3.2281,-3.2335,-3.2349,-3.2313,-3.232,-3.2452,-3.2452,-3.2511,-3.2506,-3.2507,-3.2509,-3.2767,-3.277,-3.2877,0,0,0,-3.2242,-3.2269,-3.228,-3.2295,-3.2348,-3.2402,-3.2347,-3.2445,-3.2456,-3.2505,-3.2507,-3.251,-3.2765,-3.2769,-3.287,-3.2925,0,0,0,-3.2242,-3.2269,-3.2286,-3.2296,-3.2335,-3.2399,-3.2406,-3.2447,-3.2454,-3.2505,-3.2511,-3.2764,-3.2768,-3.2864,-3.2914,-3.3001,0,0,0,-3.2249,-3.2381,-3.2288,-3.2433,-3.2334,-3.2465,-3.2405,-3.2501,-3.2558,-3.2508,-3.2766,-3.277,-3.2862,-3.2908,-3.2994,-3.3079,-3.3116,0,0,-3.2429,-3.2403,-3.2486,-3.2406,-3.2559,-3.2449,-3.2618,-3.2648,-3.2631,-3.2725,-3.2731,-3.2873,-3.2913,-3.3,-3.3315,-3.3345,0,0,0,-3.2551,-3.2611,-3.2647,-3.2701,-3.2727,-3.2753,-3.2754,-3.2764,-3.2843,-3.2684,-3.2926,-3.295,-3.3,-3.3039,-3.3064,-3.3105,-3.2789,-3.2788,-3.2788,-3.284,-3.281,-3.2946,-3.2927,-3.2981,-3.298,-3.3021,-3.3035,-3.2991,-3.3049,-3.3077,-3.3272,-3.3318,-3.3337,-3.338,-3.3118,-3.3119,-3.3119,-3.3119,-3.31,-3.318,-3.3117,-3.3225,-3.3194,-3.3285,-3.3289,-3.3254,-3.3334,-3.3248,-3.3291,-3.32,-3.3371,-3.3407,-3.3127,-3.3126,-3.3125,-3.3124,-3.3123,-3.3286,-3.3319,-3.3329,-3.3404,-3.3465,-3.3442,-3.3521,-3.3489,-3.346,-3.3502,-3.3528,-3.3526,-3.352,-3.3516,-3.3517,-3.3518,-3.3518,-3.3519,-3.3519,-3.3476,-3.3483,-3.3554,-3.3591,-3.3621,-3.3657,-3.3656,-3.3685,-3.3709,-3.3679,-3.3679,-3.363,-3.3393,-3.3334,-3.353,-3.3528,-3.3526,-3.3525,-3.3525,-3.3751,-3.3683,-3.3793,-3.3823,-3.3863,-3.3925,-3.3883,-3.3944,-3.3963,-3.4004,-3.3944,-3.3774,-3.3746,-3.3726,-3.3677,-3.395,-3.395,-3.395,-3.395,-3.3909,-3.3891,-3.3995,-3.4045,-3.409,-3.4063,-3.4187,-3.4187,-3.4177,-3.4187,-3.4143,-3.4075,-3.4056,-3.404,-3.4013,-3.3967,-3.4307,-3.4307,-3.4307,-3.4076,-3.4061,-3.4173,-3.4161,-3.419,-3.4215,-3.4331,-3.4391,-3.4365,-3.4321,-3.4194,-3.4179,-3.407,-3.4035,-3.399,-3.3948,-3.3863,0,0]},{"header":{"parameterUnit":"m.s-1","parameterCategory":1,"la1":30.2992,"la2":30.254,"lo1":-89.0895,"lo2":-89.0443,"dy":0.0025,"dx":0.0025,"nx":19,"ny":19,"refTime":"2026-05-14T21:00:00:Z","depth":0,"parameterNumber":3,"parameterNumberName":"V-component_of_WINDS"},"data":[0,0,0,-2.0471,-2.0472,-2.0531,-2.0531,-2.0604,-2.0605,0,0,0,0,0,0,0,0,0,0,0,-2.0454,-2.0455,-2.0471,-2.0472,-2.0531,-2.0531,-2.0604,-2.0605,0,0,0,0,0,0,0,0,0,0,0,-2.0454,-2.0455,-2.0455,-2.0473,-2.0531,-2.0531,-2.0604,-2.056,0,0,0,0,0,0,0,0,0,0,-2.0503,-2.0489,-2.0455,-2.0455,-2.0473,-2.0531,-2.0531,-2.0558,-2.0562,-2.0577,0,-2.0592,0,-2.06,-2.0609,-2.061,0,0,0,-2.0471,-2.0485,-2.05,-2.0456,-2.0474,-2.0531,-2.0504,-2.056,-2.0566,-2.0583,-2.0593,-2.0596,-2.0601,-2.061,-2.061,-2.0702,-2.0703,0,0,-2.0468,-2.0465,-2.0496,-2.0504,-2.0497,-2.0502,-2.0506,-2.0564,-2.0573,-2.0593,-2.0597,-2.0602,-2.061,-2.0611,-2.0702,-2.0702,0,0,0,-2.0459,-2.0463,-2.0477,-2.0501,-2.0512,-2.0504,-2.0508,-2.0571,-2.0576,-2.0598,-2.0603,-2.0611,-2.0612,-2.0701,-2.0702,-2.0722,0,0,0,-2.0457,-2.0458,-2.0475,-2.0474,-2.0511,-2.0542,-2.0514,-2.0572,-2.0578,-2.0603,-2.0611,-2.0612,-2.0701,-2.0702,-2.0721,-2.0732,0,0,0,-2.045,-2.0457,-2.0466,-2.0473,-2.0499,-2.0542,-2.055,-2.0573,-2.0581,-2.061,-2.0613,-2.07,-2.0701,-2.0719,-2.073,-2.0754,0,0,0,-2.0441,-2.0483,-2.0466,-2.0514,-2.0498,-2.0555,-2.0549,-2.0591,-2.0618,-2.0611,-2.0701,-2.0702,-2.0719,-2.0728,-2.0753,-2.0774,-2.0783,0,0,-2.0492,-2.0489,-2.0518,-2.0504,-2.0563,-2.0546,-2.0607,-2.0634,-2.0639,-2.068,-2.0682,-2.0721,-2.0729,-2.0754,-2.0836,-2.0843,0,0,0,-2.0532,-2.0553,-2.0569,-2.0596,-2.0619,-2.0638,-2.0657,-2.0667,-2.0702,-2.066,-2.0738,-2.0743,-2.0757,-2.0767,-2.0773,-2.0785,-2.0707,-2.0707,-2.0707,-2.0599,-2.0604,-2.0651,-2.0663,-2.0689,-2.0708,-2.0728,-2.0744,-2.0741,-2.076,-2.0771,-2.0821,-2.0833,-2.0837,-2.085,-2.0784,-2.0784,-2.0784,-2.0784,-2.0673,-2.0701,-2.0698,-2.0742,-2.0746,-2.0783,-2.0802,-2.0798,-2.0831,-2.0813,-2.0826,-2.0803,-2.0845,-2.0856,-2.0786,-2.0786,-2.0785,-2.0785,-2.0785,-2.0715,-2.073,-2.0743,-2.0781,-2.081,-2.082,-2.0852,-2.0855,-2.0858,-2.0871,-2.0882,-2.0882,-2.0881,-2.0876,-2.0877,-2.0877,-2.0877,-2.0877,-2.0877,-2.0754,-2.0768,-2.0795,-2.0823,-2.084,-2.0863,-2.0882,-2.0898,-2.0916,-2.0915,-2.0915,-2.0909,-2.0849,-2.0833,-2.088,-2.0879,-2.0879,-2.0879,-2.0879,-2.0824,-2.0809,-2.0852,-2.0869,-2.0901,-2.0928,-2.0932,-2.0965,-2.0978,-2.0993,-2.0985,-2.0941,-2.0937,-2.0932,-2.0919,-2.0985,-2.0985,-2.0985,-2.0985,-2.0859,-2.0858,-2.0902,-2.0929,-2.0956,-2.0964,-2.101,-2.1024,-2.1037,-2.1045,-2.1036,-2.1019,-2.1014,-2.1013,-2.1006,-2.0994,-2.1078,-2.1078,-2.1078,-2.0902,-2.0904,-2.0943,-2.0957,-2.0982,-2.1003,-2.1046,-2.1075,-2.1085,-2.1082,-2.1051,-2.1047,-2.1019,-2.1011,-2.1004,-2.0994,-2.0971,0,0]}]]